Location: Hungerford
(51.4167°N, 1.5167°W)
Time: 23:22:32
(UTC+00:00)

Cosmos 909 Rocket - Pass Details

Date: 18 September 2020
Orbit: 991 x 2088 km, 65.9° (Epoch: 30 October)

Event Time Altitude Azimuth Distance (km) Brightness Sun altitude
Rises 21:37:32 0° 319° (NW) 4,000 8.4 -29.2°
Reaches altitude 10° 21:40:20 10° 320° (NW) 2,937 7.4 -29.5°
Enters shadow 21:47:00 82° 44° (NE) 1,018 3.9 -30.1°
